Time,TemperatureF,DewpointF,PressureIn,WindDirection,WindDirectionDegrees,WindSpeedMPH,WindSpeedGustMPH,Humidity,HourlyPrecipIn,Conditions,Clouds,dailyrainin,SolarRadiationWatts/m^2,SoftwareType,DateUTC
2013-07-26 00:01:00,65.5,45.3,30.12,WSW,249,6.0,11.0,48,0.00,,,0.00,0.0,meteohub,2013-07-26 07:01:00,
2013-07-26 00:06:00,65.3,44.6,30.12,WSW,238,1.0,11.0,47,0.00,,,0.00,0.0,meteohub,2013-07-26 07:06:00,
2013-07-26 00:11:00,65.5,44.8,30.12,WSW,250,5.0,10.0,47,0.00,,,0.00,0.0,meteohub,2013-07-26 07:11:00,
2013-07-26 00:16:00,65.5,44.8,30.12,WSW,244,1.0,9.0,47,0.00,,,0.00,0.0,meteohub,2013-07-26 07:16:00,
2013-07-26 00:21:00,65.1,45.5,30.12,West,279,3.0,9.0,49,0.00,,,0.00,0.0,meteohub,2013-07-26 07:21:00,
2013-07-26 00:27:00,64.9,45.9,30.12,WSW,252,7.0,9.0,50,0.00,,,0.00,0.0,meteohub,2013-07-26 07:27:00,
2013-07-26 00:32:00,64.9,47.5,30.12,WSW,244,7.0,10.0,53,0.00,,,0.00,0.0,meteohub,2013-07-26 07:32:00,
2013-07-26 00:37:00,65.1,48.0,30.12,SW,234,6.0,10.0,54,0.00,,,0.00,0.0,meteohub,2013-07-26 07:37:00,
2013-07-26 00:42:00,65.3,48.2,30.12,West,259,2.0,10.0,54,0.00,,,0.00,0.0,meteohub,2013-07-26 07:42:00,
2013-07-26 00:47:00,65.5,49.3,30.11,SW,221,3.0,9.0,56,0.00,,,0.00,0.0,meteohub,2013-07-26 07:47:00,
2013-07-26 00:52:00,65.1,50.0,30.11,SW,227,3.0,9.0,58,0.00,,,0.00,0.0,meteohub,2013-07-26 07:52:00,
2013-07-26 00:57:00,64.9,49.8,30.11,WSW,246,3.0,9.0,58,0.00,,,0.00,0.0,meteohub,2013-07-26 07:57:00,
2013-07-26 01:02:00,65.1,50.0,30.11,SW,229,3.0,10.0,58,0.00,,,0.00,0.0,meteohub,2013-07-26 08:02:00,
2013-07-26 01:07:00,65.1,50.4,30.11,WSW,255,3.0,10.0,59,0.00,,,0.00,0.0,meteohub,2013-07-26 08:07:00,
2013-07-26 01:12:00,65.1,50.4,30.11,SSW,202,2.0,10.0,59,0.00,,,0.00,0.0,meteohub,2013-07-26 08:12:00,
2013-07-26 01:17:00,65.1,50.0,30.11,West,260,2.0,7.0,58,0.00,,,0.00,0.0,meteohub,2013-07-26 08:17:00,
2013-07-26 01:23:00,65.5,49.8,30.11,SW,234,5.0,7.0,57,0.00,,,0.00,0.0,meteohub,2013-07-26 08:23:00,
2013-07-26 01:28:00,65.5,48.9,30.11,WSW,252,3.0,7.0,55,0.00,,,0.00,0.0,meteohub,2013-07-26 08:28:00,
2013-07-26 01:33:00,65.7,49.5,30.11,SW,234,2.0,7.0,56,0.00,,,0.00,0.0,meteohub,2013-07-26 08:33:00,
2013-07-26 01:38:00,65.7,49.5,30.11,West,271,1.0,7.0,56,0.00,,,0.00,0.0,meteohub,2013-07-26 08:38:00,
2013-07-26 01:43:00,65.7,50.0,30.11,SW,229,5.0,8.0,57,0.00,,,0.00,0.0,meteohub,2013-07-26 08:43:00,
2013-07-26 01:48:00,65.5,50.7,30.11,WSW,251,4.0,8.0,59,0.00,,,0.00,0.0,meteohub,2013-07-26 08:48:00,
2013-07-26 01:53:00,65.3,51.1,30.11,SW,227,0.0,8.0,60,0.00,,,0.00,0.0,meteohub,2013-07-26 08:53:00,
2013-07-26 01:58:00,65.1,51.8,30.11,WSW,244,1.0,8.0,62,0.00,,,0.00,0.0,meteohub,2013-07-26 08:58:00,
2013-07-26 02:04:00,64.9,52.0,30.12,SW,217,2.0,8.0,63,0.00,,,0.00,0.0,meteohub,2013-07-26 09:04:00,
2013-07-26 02:09:00,64.6,52.5,30.11,SW,233,3.0,7.0,65,0.00,,,0.00,0.0,meteohub,2013-07-26 09:09:00,
2013-07-26 02:14:00,64.2,52.7,30.11,SW,227,3.0,7.0,66,0.00,,,0.00,0.0,meteohub,2013-07-26 09:14:00,
2013-07-26 02:19:00,63.9,52.7,30.11,SW,232,3.0,7.0,67,0.00,,,0.00,0.0,meteohub,2013-07-26 09:19:00,
2013-07-26 02:24:00,63.5,53.1,30.11,SW,236,3.0,7.0,69,0.00,,,0.00,0.0,meteohub,2013-07-26 09:24:00,
2013-07-26 02:29:00,63.0,53.1,30.11,SW,217,0.0,6.0,70,0.00,,,0.00,0.0,meteohub,2013-07-26 09:29:00,
2013-07-26 02:35:00,62.4,52.9,30.12,SW,227,1.0,5.0,71,0.00,,,0.00,0.0,meteohub,2013-07-26 09:35:00,
2013-07-26 02:40:00,61.9,52.7,30.11,WSW,238,3.0,6.0,72,0.00,,,0.00,0.0,meteohub,2013-07-26 09:40:00,
2013-07-26 02:45:00,61.3,52.7,30.11,WSW,252,2.0,6.0,73,0.00,,,0.00,0.0,meteohub,2013-07-26 09:45:00,
2013-07-26 02:50:00,61.0,52.7,30.11,SW,216,3.0,6.0,74,0.00,,,0.00,0.0,meteohub,2013-07-26 09:50:00,
2013-07-26 02:55:00,60.4,52.5,30.11,WSW,242,4.0,7.0,75,0.00,,,0.00,0.0,meteohub,2013-07-26 09:55:00,
2013-07-26 03:00:00,60.3,52.7,30.11,SW,232,4.0,7.0,76,0.00,,,0.00,0.0,meteohub,2013-07-26 10:00:00,
2013-07-26 03:05:00,60.1,52.5,30.12,West,268,0.0,7.0,76,0.00,,,0.00,0.0,meteohub,2013-07-26 10:05:00,
2013-07-26 03:11:00,59.5,52.3,30.12,West,260,3.0,6.0,77,0.00,,,0.00,0.0,meteohub,2013-07-26 10:11:00,
2013-07-26 03:16:00,59.4,52.5,30.12,WSW,246,2.0,6.0,78,0.00,,,0.00,0.0,meteohub,2013-07-26 10:16:00,
2013-07-26 03:21:00,59.0,52.2,30.12,WSW,246,4.0,7.0,78,0.00,,,0.00,0.0,meteohub,2013-07-26 10:21:00,
2013-07-26 03:26:00,58.6,51.8,30.12,SW,227,3.0,7.0,78,0.00,,,0.00,0.0,meteohub,2013-07-26 10:26:00,
2013-07-26 03:31:00,58.5,52.0,30.12,West,263,5.0,7.0,79,0.00,,,0.00,0.0,meteohub,2013-07-26 10:31:00,
2013-07-26 03:36:00,58.1,52.0,30.12,WSW,244,4.0,9.0,80,0.00,,,0.00,0.0,meteohub,2013-07-26 10:36:00,
2013-07-26 03:42:00,57.7,52.0,30.12,WSW,255,3.0,9.0,81,0.00,,,0.00,0.0,meteohub,2013-07-26 10:42:00,
2013-07-26 03:47:00,57.6,51.8,30.12,WSW,244,5.0,9.0,81,0.00,,,0.00,0.0,meteohub,2013-07-26 10:47:00,
2013-07-26 03:52:00,57.4,51.6,30.12,WSW,248,0.0,9.0,81,0.00,,,0.00,0.0,meteohub,2013-07-26 10:52:00,
2013-07-26 03:57:00,57.4,52.0,30.12,WSW,242,4.0,7.0,82,0.00,,,0.00,0.0,meteohub,2013-07-26 10:57:00,
2013-07-26 04:02:00,57.2,51.8,30.12,WSW,253,3.0,7.0,82,0.00,,,0.00,0.0,meteohub,2013-07-26 11:02:00,
2013-07-26 04:08:00,57.2,52.2,30.12,West,260,3.0,7.0,83,0.00,,,0.00,0.0,meteohub,2013-07-26 11:08:00,
2013-07-26 04:13:00,57.0,52.0,30.12,WSW,238,3.0,8.0,83,0.00,,,0.00,0.0,meteohub,2013-07-26 11:13:00,
2013-07-26 04:18:00,56.8,51.8,30.12,WSW,238,5.0,8.0,83,0.00,,,0.00,0.0,meteohub,2013-07-26 11:18:00,
2013-07-26 04:24:00,56.8,52.0,30.12,SW,234,4.0,8.0,84,0.00,,,0.00,0.0,meteohub,2013-07-26 11:24:00,
2013-07-26 04:29:00,56.7,51.8,30.12,SW,229,4.0,8.0,84,0.00,,,0.00,0.0,meteohub,2013-07-26 11:29:00,
2013-07-26 04:34:00,56.7,52.2,30.12,WSW,253,6.0,8.0,85,0.00,,,0.00,0.0,meteohub,2013-07-26 11:34:00,
2013-07-26 04:39:00,56.8,52.0,30.12,WSW,241,5.0,8.0,84,0.00,,,0.00,0.0,meteohub,2013-07-26 11:39:00,
2013-07-26 04:44:00,56.8,52.3,30.12,SW,229,5.0,8.0,85,0.00,,,0.00,0.0,meteohub,2013-07-26 11:44:00,
2013-07-26 04:49:00,56.8,52.3,30.13,West,260,3.0,8.0,85,0.00,,,0.00,0.0,meteohub,2013-07-26 11:49:00,
2013-07-26 04:55:00,56.7,52.2,30.13,WSW,244,4.0,7.0,85,0.00,,,0.00,0.0,meteohub,2013-07-26 11:55:00,
2013-07-26 05:00:00,56.5,52.0,30.13,WSW,241,2.0,7.0,85,0.00,,,0.00,0.0,meteohub,2013-07-26 12:00:00,
2013-07-26 05:05:00,56.1,51.6,30.13,WSW,241,4.0,7.0,85,0.00,,,0.00,0.0,meteohub,2013-07-26 12:05:00,
2013-07-26 05:10:00,55.9,51.8,30.13,WSW,242,3.0,7.0,86,0.00,,,0.00,0.0,meteohub,2013-07-26 12:10:00,
2013-07-26 05:15:00,55.8,51.6,30.14,West,273,3.0,9.0,86,0.00,,,0.00,0.0,meteohub,2013-07-26 12:15:00,
2013-07-26 05:20:00,55.6,51.4,30.14,WSW,244,4.0,9.0,86,0.00,,,0.00,0.0,meteohub,2013-07-26 12:20:00,
2013-07-26 05:26:00,55.4,51.6,30.14,WSW,246,4.0,9.0,87,0.00,,,0.00,0.0,meteohub,2013-07-26 12:26:00,
2013-07-26 05:31:00,55.0,51.3,30.14,West,268,4.0,9.0,87,0.00,,,0.00,0.0,meteohub,2013-07-26 12:31:00,
2013-07-26 05:36:00,54.9,51.4,30.14,WSW,242,6.0,9.0,88,0.00,,,0.00,0.0,meteohub,2013-07-26 12:36:00,
2013-07-26 05:41:00,54.7,51.3,30.14,WSW,249,4.0,11.0,88,0.00,,,0.00,0.0,meteohub,2013-07-26 12:41:00,
2013-07-26 05:46:00,54.5,51.3,30.15,West,266,4.0,11.0,89,0.00,,,0.00,0.0,meteohub,2013-07-26 12:46:00,
2013-07-26 05:52:00,54.3,51.1,30.15,SSW,198,9.0,11.0,89,0.00,,,0.00,0.0,meteohub,2013-07-26 12:52:00,
2013-07-26 05:57:00,54.3,51.1,30.15,SW,231,4.0,12.0,89,0.00,,,0.00,0.0,meteohub,2013-07-26 12:57:00,
2013-07-26 06:02:00,54.1,51.3,30.16,WSW,242,7.0,12.0,90,0.00,,,0.00,0.0,meteohub,2013-07-26 13:02:00,
2013-07-26 06:07:00,54.1,51.3,30.16,WSW,252,4.0,12.0,90,0.00,,,0.00,0.0,meteohub,2013-07-26 13:07:00,
2013-07-26 06:12:00,54.1,51.3,30.16,SW,215,3.0,10.0,90,0.00,,,0.00,0.0,meteohub,2013-07-26 13:12:00,
2013-07-26 06:17:00,54.1,51.3,30.16,WSW,246,2.0,10.0,90,0.00,,,0.00,0.0,meteohub,2013-07-26 13:17:00,
2013-07-26 06:22:00,54.1,51.3,30.16,West,259,6.0,13.0,90,0.00,,,0.00,5.0,meteohub,2013-07-26 13:22:00,
2013-07-26 06:28:00,54.1,51.3,30.17,WSW,240,5.0,13.0,90,0.00,,,0.00,9.0,meteohub,2013-07-26 13:28:00,
2013-07-26 06:33:00,54.1,51.3,30.17,SW,232,3.0,13.0,90,0.00,,,0.00,18.0,meteohub,2013-07-26 13:33:00,
2013-07-26 06:38:00,54.1,51.3,30.17,WSW,240,4.0,11.0,90,0.00,,,0.00,28.0,meteohub,2013-07-26 13:38:00,
2013-07-26 06:43:00,54.3,51.4,30.17,WSW,242,5.0,11.0,90,0.00,,,0.00,33.0,meteohub,2013-07-26 13:43:00,
2013-07-26 06:48:00,54.3,51.8,30.17,WSW,246,5.0,11.0,91,0.00,,,0.00,40.0,meteohub,2013-07-26 13:48:00,
2013-07-26 06:53:00,54.5,51.6,30.17,WSW,250,6.0,11.0,90,0.00,,,0.00,33.0,meteohub,2013-07-26 13:53:00,
2013-07-26 06:58:00,54.7,51.8,30.17,SW,215,3.0,11.0,90,0.00,,,0.00,42.0,meteohub,2013-07-26 13:58:00,
2013-07-26 07:03:00,54.7,51.8,30.17,WSW,247,10.0,10.0,90,0.00,,,0.00,33.0,meteohub,2013-07-26 14:03:00,
2013-07-26 07:08:00,54.7,51.8,30.18,SW,224,6.0,10.0,90,0.00,,,0.00,28.0,meteohub,2013-07-26 14:08:00,
2013-07-26 07:13:00,54.5,51.3,30.18,WNW,284,5.0,12.0,89,0.00,,,0.00,33.0,meteohub,2013-07-26 14:13:00,
2013-07-26 07:18:00,54.5,51.6,30.18,West,260,4.0,12.0,90,0.00,,,0.00,32.0,meteohub,2013-07-26 14:18:00,
2013-07-26 07:19:00,54.5,51.6,30.18,SW,223,8.0,12.0,90,0.00,,,0.00,40.0,meteohub,2013-07-26 14:19:00,
2013-07-26 07:25:00,54.7,51.8,30.18,WSW,237,7.0,12.0,90,0.00,,,0.00,42.0,meteohub,2013-07-26 14:25:00,
2013-07-26 07:30:00,54.7,51.4,30.18,West,260,4.0,11.0,89,0.00,,,0.00,25.0,meteohub,2013-07-26 14:30:00,
2013-07-26 07:35:00,54.7,51.4,30.18,WSW,257,4.0,11.0,89,0.00,,,0.00,39.0,meteohub,2013-07-26 14:35:00,
2013-07-26 07:40:00,54.7,51.4,30.19,SW,223,5.0,11.0,89,0.00,,,0.00,56.0,meteohub,2013-07-26 14:40:00,
2013-07-26 07:45:00,54.9,51.6,30.19,WSW,253,5.0,10.0,89,0.00,,,0.00,39.0,meteohub,2013-07-26 14:45:00,
2013-07-26 07:50:00,54.9,51.6,30.19,West,259,5.0,10.0,89,0.00,,,0.00,44.0,meteohub,2013-07-26 14:50:00,
2013-07-26 07:55:00,55.0,51.8,30.19,SW,214,3.0,9.0,89,0.00,,,0.00,51.0,meteohub,2013-07-26 14:55:00,
2013-07-26 08:00:00,55.2,52.0,30.19,WSW,241,6.0,12.0,89,0.00,,,0.00,28.0,meteohub,2013-07-26 15:00:00,
2013-07-26 08:05:00,55.4,52.0,30.19,WSW,244,5.0,12.0,88,0.00,,,0.00,33.0,meteohub,2013-07-26 15:05:00,
2013-07-26 08:10:00,55.6,52.2,30.19,WSW,238,4.0,12.0,88,0.00,,,0.00,47.0,meteohub,2013-07-26 15:10:00,
2013-07-26 08:16:00,55.8,52.3,30.19,WSW,246,4.0,12.0,88,0.00,,,0.00,60.0,meteohub,2013-07-26 15:16:00,
2013-07-26 08:21:00,55.9,52.5,30.19,WSW,239,7.0,10.0,88,0.00,,,0.00,69.0,meteohub,2013-07-26 15:21:00,
2013-07-26 08:26:00,55.9,52.2,30.19,WSW,242,8.0,10.0,87,0.00,,,0.00,37.0,meteohub,2013-07-26 15:26:00,
2013-07-26 08:31:00,55.9,52.2,30.19,WSW,246,6.0,10.0,87,0.00,,,0.00,28.0,meteohub,2013-07-26 15:31:00,
2013-07-26 08:37:00,56.1,52.3,30.20,WSW,252,3.0,10.0,87,0.00,,,0.00,46.0,meteohub,2013-07-26 15:37:00,
2013-07-26 08:42:00,56.1,52.3,30.20,WSW,249,3.0,10.0,87,0.00,,,0.00,28.0,meteohub,2013-07-26 15:42:00,
2013-07-26 08:47:00,56.3,52.2,30.20,SW,221,4.0,10.0,86,0.00,,,0.00,33.0,meteohub,2013-07-26 15:47:00,
2013-07-26 08:52:00,56.7,52.5,30.20,WSW,238,4.0,10.0,86,0.00,,,0.00,26.0,meteohub,2013-07-26 15:52:00,
2013-07-26 08:57:00,56.8,52.7,30.20,West,273,6.0,14.0,86,0.00,,,0.00,26.0,meteohub,2013-07-26 15:57:00,
2013-07-26 09:02:00,57.4,52.9,30.20,SW,235,10.0,14.0,85,0.00,,,0.00,26.0,meteohub,2013-07-26 16:02:00,
2013-07-26 09:07:00,57.7,52.9,30.20,WSW,238,6.0,14.0,84,0.00,,,0.00,26.0,meteohub,2013-07-26 16:07:00,
2013-07-26 09:12:00,58.3,53.4,30.20,SSW,202,6.0,11.0,84,0.00,,,0.00,26.0,meteohub,2013-07-26 16:12:00,
2013-07-26 09:17:00,58.8,53.4,30.20,West,281,4.0,11.0,82,0.00,,,0.00,28.0,meteohub,2013-07-26 16:17:00,
2013-07-26 09:23:00,59.4,53.6,30.20,West,267,5.0,11.0,81,0.00,,,0.00,28.0,meteohub,2013-07-26 16:23:00,
2013-07-26 09:28:00,59.7,53.6,30.19,WSW,248,4.0,13.0,80,0.00,,,0.00,28.0,meteohub,2013-07-26 16:28:00,
2013-07-26 09:33:00,60.6,53.8,30.19,WSW,255,6.0,13.0,78,0.00,,,0.00,30.0,meteohub,2013-07-26 16:33:00,
2013-07-26 09:38:00,61.2,54.0,30.19,WSW,257,7.0,13.0,77,0.00,,,0.00,30.0,meteohub,2013-07-26 16:38:00,
2013-07-26 09:43:00,61.9,53.8,30.19,SW,235,5.0,11.0,75,0.00,,,0.00,33.0,meteohub,2013-07-26 16:43:00,
2013-07-26 09:48:00,62.4,54.0,30.19,WSW,257,7.0,11.0,74,0.00,,,0.00,32.0,meteohub,2013-07-26 16:48:00,
2013-07-26 09:53:00,63.1,54.0,30.19,SSW,213,7.0,11.0,72,0.00,,,0.00,33.0,meteohub,2013-07-26 16:53:00,
2013-07-26 09:58:00,63.7,54.1,30.19,WSW,250,4.0,12.0,71,0.00,,,0.00,33.0,meteohub,2013-07-26 16:58:00,
2013-07-26 10:03:00,64.4,54.3,30.19,SW,232,7.0,12.0,70,0.00,,,0.00,35.0,meteohub,2013-07-26 17:03:00,
2013-07-26 10:09:00,64.9,54.1,30.20,WSW,244,3.0,12.0,68,0.00,,,0.00,37.0,meteohub,2013-07-26 17:09:00,
2013-07-26 10:14:00,65.7,54.3,30.19,West,278,5.0,9.0,67,0.00,,,0.00,60.0,meteohub,2013-07-26 17:14:00,
2013-07-26 10:19:00,66.0,54.3,30.19,WSW,245,6.0,11.0,66,0.00,,,0.00,40.0,meteohub,2013-07-26 17:19:00,
2013-07-26 10:25:00,66.7,54.7,30.20,West,278,6.0,11.0,65,0.00,,,0.00,114.0,meteohub,2013-07-26 17:25:00,
2013-07-26 10:30:00,66.9,54.3,30.20,WNW,296,3.0,11.0,64,0.00,,,0.00,95.0,meteohub,2013-07-26 17:30:00,
2013-07-26 10:35:00,67.5,54.9,30.20,WNW,283,4.0,11.0,64,0.00,,,0.00,56.0,meteohub,2013-07-26 17:35:00,
2013-07-26 10:40:00,68.4,54.9,30.20,WSW,257,4.0,11.0,62,0.00,,,0.00,77.0,meteohub,2013-07-26 17:40:00,
2013-07-26 10:45:00,69.3,54.9,30.19,SW,233,7.0,10.0,60,0.00,,,0.00,128.0,meteohub,2013-07-26 17:45:00,
2013-07-26 10:50:00,70.2,54.7,30.19,WSW,250,6.0,11.0,58,0.00,,,0.00,724.0,meteohub,2013-07-26 17:50:00,
2013-07-26 10:55:00,71.1,54.5,30.20,West,265,6.0,11.0,56,0.00,,,0.00,682.0,meteohub,2013-07-26 17:55:00,
2013-07-26 11:01:00,71.6,54.1,30.20,SW,220,7.0,11.0,54,0.00,,,0.00,334.0,meteohub,2013-07-26 18:01:00,
2013-07-26 11:06:00,72.1,54.5,30.19,WSW,238,5.0,11.0,54,0.00,,,0.00,49.0,meteohub,2013-07-26 18:06:00,
2013-07-26 11:11:00,72.3,54.1,30.19,WSW,245,5.0,12.0,53,0.00,,,0.00,51.0,meteohub,2013-07-26 18:11:00,
2013-07-26 11:17:00,72.3,54.1,30.19,WNW,299,4.0,15.0,53,0.00,,,0.00,51.0,meteohub,2013-07-26 18:17:00,
2013-07-26 11:22:00,72.7,54.0,30.19,NW,317,6.0,15.0,52,0.00,,,0.00,51.0,meteohub,2013-07-26 18:22:00,
2013-07-26 11:27:00,72.9,54.7,30.19,SSW,205,7.0,15.0,53,0.00,,,0.00,53.0,meteohub,2013-07-26 18:27:00,
2013-07-26 11:32:00,73.6,54.9,30.19,WSW,246,7.0,14.0,52,0.00,,,0.00,53.0,meteohub,2013-07-26 18:32:00,
2013-07-26 11:37:00,74.1,54.3,30.19,West,275,4.0,14.0,50,0.00,,,0.00,54.0,meteohub,2013-07-26 18:37:00,
2013-07-26 11:42:00,74.1,54.9,30.19,WSW,246,10.0,13.0,51,0.00,,,0.00,54.0,meteohub,2013-07-26 18:42:00,
2013-07-26 11:48:00,74.3,55.0,30.18,West,261,7.0,14.0,51,0.00,,,0.00,56.0,meteohub,2013-07-26 18:48:00,
2013-07-26 11:53:00,75.2,55.2,30.18,WSW,241,9.0,14.0,50,0.00,,,0.00,56.0,meteohub,2013-07-26 18:53:00,
2013-07-26 11:58:00,75.9,55.9,30.18,West,266,7.0,13.0,50,0.00,,,0.00,58.0,meteohub,2013-07-26 18:58:00,
2013-07-26 12:03:00,76.1,55.6,30.18,WSW,258,6.0,11.0,49,0.00,,,0.00,58.0,meteohub,2013-07-26 19:03:00,
2013-07-26 12:08:00,76.6,56.1,30.18,WSW,238,7.0,11.0,49,0.00,,,0.00,84.0,meteohub,2013-07-26 19:08:00,
2013-07-26 12:13:00,77.4,55.6,30.18,WSW,240,8.0,11.0,47,0.00,,,0.00,654.0,meteohub,2013-07-26 19:13:00,
2013-07-26 12:18:00,77.5,55.8,30.18,WSW,242,7.0,13.0,47,0.00,,,0.00,874.0,meteohub,2013-07-26 19:18:00,
2013-07-26 12:24:00,78.3,56.3,30.18,WSW,258,8.0,13.0,47,0.00,,,0.00,881.0,meteohub,2013-07-26 19:24:00,
2013-07-26 12:29:00,78.6,55.6,30.18,West,259,7.0,13.0,45,0.00,,,0.00,888.0,meteohub,2013-07-26 19:29:00,
2013-07-26 12:34:00,79.0,55.8,30.17,WSW,250,5.0,12.0,45,0.00,,,0.00,895.0,meteohub,2013-07-26 19:34:00,
2013-07-26 12:39:00,79.3,56.1,30.17,WNW,297,5.0,12.0,45,0.00,,,0.00,895.0,meteohub,2013-07-26 19:39:00,
2013-07-26 12:44:00,79.3,56.1,30.17,WSW,250,6.0,12.0,45,0.00,,,0.00,900.0,meteohub,2013-07-26 19:44:00,
2013-07-26 12:49:00,79.5,56.3,30.17,WSW,240,7.0,12.0,45,0.00,,,0.00,902.0,meteohub,2013-07-26 19:49:00,
2013-07-26 12:54:00,80.1,56.8,30.17,WSW,250,6.0,12.0,45,0.00,,,0.00,904.0,meteohub,2013-07-26 19:54:00,
2013-07-26 13:00:00,80.2,57.0,30.17,WSW,253,4.0,11.0,45,0.00,,,0.00,905.0,meteohub,2013-07-26 20:00:00,
2013-07-26 13:05:00,80.6,56.7,30.17,West,275,3.0,10.0,44,0.00,,,0.00,909.0,meteohub,2013-07-26 20:05:00,
2013-07-26 13:10:00,81.1,57.2,30.16,West,261,4.0,11.0,44,0.00,,,0.00,911.0,meteohub,2013-07-26 20:10:00,
2013-07-26 13:15:00,81.9,57.2,30.16,West,271,5.0,11.0,43,0.00,,,0.00,912.0,meteohub,2013-07-26 20:15:00,
2013-07-26 13:20:00,82.4,57.0,30.16,SW,225,5.0,10.0,42,0.00,,,0.00,914.0,meteohub,2013-07-26 20:20:00,
2013-07-26 13:25:00,82.9,56.8,30.16,West,266,6.0,14.0,41,0.00,,,0.00,914.0,meteohub,2013-07-26 20:25:00,
2013-07-26 13:31:00,82.9,56.8,30.16,WSW,241,5.0,11.0,41,0.00,,,0.00,914.0,meteohub,2013-07-26 20:31:00,
2013-07-26 13:36:00,83.7,56.8,30.15,WSW,248,6.0,10.0,40,0.00,,,0.00,914.0,meteohub,2013-07-26 20:36:00,
2013-07-26 13:41:00,83.7,56.1,30.16,SW,233,6.0,11.0,39,0.00,,,0.00,914.0,meteohub,2013-07-26 20:41:00,
2013-07-26 13:46:00,83.8,57.0,30.15,West,280,6.0,11.0,40,0.00,,,0.00,914.0,meteohub,2013-07-26 20:46:00,
2013-07-26 13:51:00,84.0,56.5,30.15,SSW,205,7.0,11.0,39,0.00,,,0.00,912.0,meteohub,2013-07-26 20:51:00,
2013-07-26 13:56:00,84.0,56.5,30.15,SW,230,8.0,12.0,39,0.00,,,0.00,912.0,meteohub,2013-07-26 20:56:00,
2013-07-26 14:01:00,84.6,56.8,30.15,WSW,244,6.0,12.0,39,0.00,,,0.00,912.0,meteohub,2013-07-26 21:01:00,
2013-07-26 14:06:00,84.9,56.5,30.14,WSW,253,7.0,12.0,38,0.00,,,0.00,911.0,meteohub,2013-07-26 21:06:00,
2013-07-26 14:12:00,85.3,56.1,30.14,West,275,5.0,14.0,37,0.00,,,0.00,909.0,meteohub,2013-07-26 21:12:00,
2013-07-26 14:17:00,85.3,56.1,30.14,WSW,252,4.0,14.0,37,0.00,,,0.00,930.0,meteohub,2013-07-26 21:17:00,
2013-07-26 14:22:00,85.5,56.3,30.14,WSW,251,4.0,12.0,37,0.00,,,0.00,918.0,meteohub,2013-07-26 21:22:00,
2013-07-26 14:27:00,85.8,56.5,30.14,WSW,253,6.0,12.0,37,0.00,,,0.00,896.0,meteohub,2013-07-26 21:27:00,
2013-07-26 14:32:00,86.2,56.1,30.14,WNW,297,4.0,12.0,36,0.00,,,0.00,893.0,meteohub,2013-07-26 21:32:00,
2013-07-26 14:37:00,86.7,56.7,30.14,WNW,294,4.0,12.0,36,0.00,,,0.00,886.0,meteohub,2013-07-26 21:37:00,
2013-07-26 14:42:00,87.3,56.3,30.13,West,265,5.0,12.0,35,0.00,,,0.00,882.0,meteohub,2013-07-26 21:42:00,
2013-07-26 14:47:00,87.1,56.1,30.13,WSW,246,8.0,12.0,35,0.00,,,0.00,877.0,meteohub,2013-07-26 21:47:00,
2013-07-26 14:53:00,87.3,57.0,30.13,WSW,252,6.0,12.0,36,0.00,,,0.00,872.0,meteohub,2013-07-26 21:53:00,
2013-07-26 14:58:00,86.9,55.9,30.13,SSW,207,7.0,12.0,35,0.00,,,0.00,865.0,meteohub,2013-07-26 21:58:00,
2013-07-26 15:03:00,86.7,56.7,30.13,WSW,247,10.0,12.0,36,0.00,,,0.00,861.0,meteohub,2013-07-26 22:03:00,
2013-07-26 15:08:00,87.4,56.5,30.13,WSW,242,7.0,12.0,35,0.00,,,0.00,847.0,meteohub,2013-07-26 22:08:00,
2013-07-26 15:13:00,87.3,56.3,30.13,South,191,8.0,12.0,35,0.00,,,0.00,842.0,meteohub,2013-07-26 22:13:00,
2013-07-26 15:18:00,86.7,56.7,30.13,WNW,288,5.0,13.0,36,0.00,,,0.00,831.0,meteohub,2013-07-26 22:18:00,
2013-07-26 15:24:00,87.3,56.3,30.12,SW,226,6.0,13.0,35,0.00,,,0.00,828.0,meteohub,2013-07-26 22:24:00,
2013-07-26 15:29:00,87.3,57.0,30.12,West,261,5.0,13.0,36,0.00,,,0.00,817.0,meteohub,2013-07-26 22:29:00,
2013-07-26 15:34:00,87.6,55.8,30.12,SW,224,7.0,12.0,34,0.00,,,0.00,809.0,meteohub,2013-07-26 22:34:00,
2013-07-26 15:39:00,88.0,56.1,30.12,WSW,250,5.0,13.0,34,0.00,,,0.00,800.0,meteohub,2013-07-26 22:39:00,
2013-07-26 15:44:00,88.3,57.2,30.12,West,269,9.0,13.0,35,0.00,,,0.00,789.0,meteohub,2013-07-26 22:44:00,
2013-07-26 15:49:00,88.0,56.1,30.12,SW,225,9.0,13.0,34,0.00,,,0.00,780.0,meteohub,2013-07-26 22:49:00,
2013-07-26 15:55:00,87.3,56.3,30.12,WSW,245,5.0,12.0,35,0.00,,,0.00,768.0,meteohub,2013-07-26 22:55:00,
2013-07-26 16:00:00,87.1,56.1,30.12,West,269,2.0,12.0,35,0.00,,,0.00,756.0,meteohub,2013-07-26 23:00:00,
2013-07-26 16:05:00,87.4,56.5,30.12,WSW,245,6.0,11.0,35,0.00,,,0.00,747.0,meteohub,2013-07-26 23:05:00,
2013-07-26 16:10:00,87.1,56.1,30.12,WSW,242,4.0,11.0,35,0.00,,,0.00,731.0,meteohub,2013-07-26 23:10:00,
2013-07-26 16:16:00,87.1,56.8,30.12,WSW,244,7.0,11.0,36,0.00,,,0.00,724.0,meteohub,2013-07-26 23:16:00,
2013-07-26 16:21:00,86.4,56.3,30.12,WSW,246,4.0,12.0,36,0.00,,,0.00,710.0,meteohub,2013-07-26 23:21:00,
2013-07-26 16:26:00,86.0,55.9,30.12,West,265,4.0,12.0,36,0.00,,,0.00,696.0,meteohub,2013-07-26 23:26:00,
2013-07-26 16:31:00,85.8,55.8,30.12,West,271,4.0,12.0,36,0.00,,,0.00,687.0,meteohub,2013-07-26 23:31:00,
2013-07-26 16:36:00,85.5,56.3,30.12,WSW,240,4.0,13.0,37,0.00,,,0.00,673.0,meteohub,2013-07-26 23:36:00,
2013-07-26 16:42:00,84.9,55.8,30.12,WSW,251,6.0,13.0,37,0.00,,,0.00,657.0,meteohub,2013-07-26 23:42:00,
2013-07-26 16:47:00,84.4,55.9,30.11,West,267,7.0,13.0,38,0.00,,,0.00,647.0,meteohub,2013-07-26 23:47:00,
2013-07-26 16:52:00,83.3,56.5,30.11,SW,234,7.0,15.0,40,0.00,,,0.00,633.0,meteohub,2013-07-26 23:52:00,
2013-07-26 16:57:00,83.3,56.5,30.11,WSW,252,5.0,15.0,40,0.00,,,0.00,619.0,meteohub,2013-07-26 23:57:00,
2013-07-26 17:02:00,83.8,56.3,30.12,WSW,250,5.0,15.0,39,0.00,,,0.00,601.0,meteohub,2013-07-27 00:02:00,
2013-07-26 17:07:00,83.5,56.7,30.12,WSW,246,7.0,11.0,40,0.00,,,0.00,585.0,meteohub,2013-07-27 00:07:00,
2013-07-26 17:13:00,82.9,56.8,30.12,WSW,256,8.0,14.0,41,0.00,,,0.00,571.0,meteohub,2013-07-27 00:13:00,
2013-07-26 17:18:00,82.6,56.5,30.12,West,261,5.0,14.0,41,0.00,,,0.00,555.0,meteohub,2013-07-27 00:18:00,
2013-07-26 17:23:00,81.7,56.3,30.11,WSW,246,7.0,14.0,42,0.00,,,0.00,543.0,meteohub,2013-07-27 00:23:00,
2013-07-26 17:28:00,81.0,56.3,30.11,WNW,290,5.0,11.0,43,0.00,,,0.00,529.0,meteohub,2013-07-27 00:28:00,
2013-07-26 17:33:00,80.8,56.1,30.11,WNW,288,10.0,13.0,43,0.00,,,0.00,512.0,meteohub,2013-07-27 00:33:00,
2013-07-26 17:39:00,80.2,55.8,30.11,West,259,6.0,13.0,43,0.00,,,0.00,496.0,meteohub,2013-07-27 00:39:00,
2013-07-26 17:44:00,79.9,55.9,30.11,West,277,8.0,13.0,44,0.00,,,0.00,480.0,meteohub,2013-07-27 00:44:00,
2013-07-26 17:49:00,79.3,55.6,30.11,SSW,205,6.0,13.0,44,0.00,,,0.00,464.0,meteohub,2013-07-27 00:49:00,
2013-07-26 17:54:00,79.2,55.9,30.11,WSW,242,10.0,12.0,45,0.00,,,0.00,448.0,meteohub,2013-07-27 00:54:00,
2013-07-26 17:59:00,79.0,55.8,30.11,West,267,6.0,12.0,45,0.00,,,0.00,432.0,meteohub,2013-07-27 00:59:00,
2013-07-26 18:04:00,78.3,55.8,30.11,WSW,251,6.0,12.0,46,0.00,,,0.00,417.0,meteohub,2013-07-27 01:04:00,
2013-07-26 18:09:00,77.5,55.8,30.11,SSW,209,6.0,14.0,47,0.00,,,0.00,401.0,meteohub,2013-07-27 01:09:00,
2013-07-26 18:14:00,77.5,56.3,30.10,WSW,243,7.0,14.0,48,0.00,,,0.00,383.0,meteohub,2013-07-27 01:14:00,
2013-07-26 18:20:00,76.8,55.6,30.11,WSW,254,11.0,13.0,48,0.00,,,0.00,366.0,meteohub,2013-07-27 01:20:00,
2013-07-26 18:25:00,76.3,55.8,30.11,WSW,241,9.0,13.0,49,0.00,,,0.00,350.0,meteohub,2013-07-27 01:25:00,
2013-07-26 18:30:00,75.6,55.6,30.11,West,277,12.0,14.0,50,0.00,,,0.00,334.0,meteohub,2013-07-27 01:30:00,
2013-07-26 18:35:00,75.0,55.6,30.11,WSW,255,7.0,14.0,51,0.00,,,0.00,316.0,meteohub,2013-07-27 01:35:00,
2013-07-26 18:40:00,75.0,56.1,30.10,West,259,6.0,14.0,52,0.00,,,0.00,302.0,meteohub,2013-07-27 01:40:00,
2013-07-26 18:45:00,74.8,56.1,30.11,SW,227,9.0,13.0,52,0.00,,,0.00,283.0,meteohub,2013-07-27 01:45:00,
2013-07-26 18:50:00,74.5,55.8,30.11,West,262,5.0,13.0,52,0.00,,,0.00,265.0,meteohub,2013-07-27 01:50:00,
2013-07-26 18:55:00,74.1,55.4,30.11,SSW,209,6.0,13.0,52,0.00,,,0.00,251.0,meteohub,2013-07-27 01:55:00,
2013-07-26 19:00:00,73.8,55.6,30.11,SW,226,7.0,13.0,53,0.00,,,0.00,229.0,meteohub,2013-07-27 02:00:00,
2013-07-26 19:06:00,73.6,55.4,30.11,WSW,241,9.0,13.0,53,0.00,,,0.00,211.0,meteohub,2013-07-27 02:06:00,
2013-07-26 19:11:00,73.0,55.4,30.11,SW,234,6.0,13.0,54,0.00,,,0.00,192.0,meteohub,2013-07-27 02:11:00,
2013-07-26 19:16:00,72.9,55.2,30.11,West,263,5.0,13.0,54,0.00,,,0.00,172.0,meteohub,2013-07-27 02:16:00,
2013-07-26 19:21:00,72.5,55.4,30.11,WSW,251,6.0,13.0,55,0.00,,,0.00,153.0,meteohub,2013-07-27 02:21:00,
2013-07-26 19:26:00,71.8,55.2,30.11,West,272,7.0,12.0,56,0.00,,,0.00,135.0,meteohub,2013-07-27 02:26:00,
2013-07-26 19:31:00,71.1,55.0,30.11,WSW,246,9.0,12.0,57,0.00,,,0.00,116.0,meteohub,2013-07-27 02:31:00,
2013-07-26 19:36:00,70.7,55.2,30.11,WSW,257,4.0,12.0,58,0.00,,,0.00,102.0,meteohub,2013-07-27 02:36:00,
2013-07-26 19:42:00,70.5,55.0,30.10,WSW,258,3.0,12.0,58,0.00,,,0.00,62.0,meteohub,2013-07-27 02:42:00,
2013-07-26 19:47:00,70.2,54.7,30.11,West,273,5.0,12.0,58,0.00,,,0.00,23.0,meteohub,2013-07-27 02:47:00,
2013-07-26 19:52:00,69.4,54.5,30.11,WSW,248,5.0,9.0,59,0.00,,,0.00,16.0,meteohub,2013-07-27 02:52:00,
2013-07-26 19:57:00,69.1,54.7,30.11,WSW,246,3.0,9.0,60,0.00,,,0.00,12.0,meteohub,2013-07-27 02:57:00,
2013-07-26 20:02:00,68.5,54.1,30.11,WNW,290,6.0,10.0,60,0.00,,,0.00,11.0,meteohub,2013-07-27 03:02:00,
2013-07-26 20:07:00,68.2,53.8,30.11,WSW,255,4.0,10.0,60,0.00,,,0.00,9.0,meteohub,2013-07-27 03:07:00,
2013-07-26 20:12:00,67.8,53.4,30.11,West,263,6.0,10.0,60,0.00,,,0.00,7.0,meteohub,2013-07-27 03:12:00,
2013-07-26 20:17:00,67.6,53.8,30.11,SSW,203,7.0,9.0,61,0.00,,,0.00,0.0,meteohub,2013-07-27 03:17:00,
2013-07-26 20:22:00,67.5,53.6,30.12,WSW,252,5.0,9.0,61,0.00,,,0.00,0.0,meteohub,2013-07-27 03:22:00,
2013-07-26 20:28:00,66.9,53.4,30.12,WSW,240,3.0,9.0,62,0.00,,,0.00,0.0,meteohub,2013-07-27 03:28:00,
2013-07-26 20:33:00,66.6,53.6,30.11,West,279,4.0,9.0,63,0.00,,,0.00,0.0,meteohub,2013-07-27 03:33:00,
2013-07-26 20:38:00,66.0,53.1,30.11,WSW,245,4.0,9.0,63,0.00,,,0.00,0.0,meteohub,2013-07-27 03:38:00,
2013-07-26 20:43:00,65.8,53.2,30.11,WSW,250,5.0,9.0,64,0.00,,,0.00,0.0,meteohub,2013-07-27 03:43:00,
2013-07-26 20:48:00,65.5,53.4,30.11,WSW,242,4.0,9.0,65,0.00,,,0.00,0.0,meteohub,2013-07-27 03:48:00,
2013-07-26 20:53:00,65.1,53.1,30.12,WSW,244,2.0,9.0,65,0.00,,,0.00,0.0,meteohub,2013-07-27 03:53:00,
2013-07-26 20:58:00,64.9,53.2,30.12,WSW,240,5.0,8.0,66,0.00,,,0.00,0.0,meteohub,2013-07-27 03:58:00,
2013-07-26 21:01:00,64.8,53.1,30.12,West,263,4.0,8.0,66,0.00,,,0.00,0.0,meteohub,2013-07-27 04:01:00,
2013-07-26 21:02:00,64.8,53.1,30.12,West,268,4.0,8.0,66,0.00,,,0.00,0.0,meteohub,2013-07-27 04:02:00,
2013-07-26 21:03:00,64.8,53.1,30.12,West,266,4.0,8.0,66,0.00,,,0.00,0.0,meteohub,2013-07-27 04:03:00,
2013-07-26 21:04:00,64.8,53.1,30.12,West,260,4.0,8.0,66,0.00,,,0.00,0.0,meteohub,2013-07-27 04:04:00,
2013-07-26 21:09:00,64.8,53.1,30.12,West,265,0.0,8.0,66,0.00,,,0.00,0.0,meteohub,2013-07-27 04:09:00,
2013-07-26 21:14:00,64.8,53.1,30.12,WSW,240,2.0,8.0,66,0.00,,,0.00,0.0,meteohub,2013-07-27 04:14:00,
2013-07-26 21:19:00,64.8,53.1,30.13,West,267,3.0,8.0,66,0.00,,,0.00,0.0,meteohub,2013-07-27 04:19:00,
2013-07-26 21:25:00,64.6,52.9,30.13,WSW,246,1.0,7.0,66,0.00,,,0.00,0.0,meteohub,2013-07-27 04:25:00,
2013-07-26 21:30:00,64.4,53.2,30.13,South,182,0.0,7.0,67,0.00,,,0.00,0.0,meteohub,2013-07-27 04:30:00,
2013-07-26 21:35:00,64.0,53.2,30.14,WSW,250,0.0,7.0,68,0.00,,,0.00,0.0,meteohub,2013-07-27 04:35:00,
2013-07-26 21:40:00,63.9,53.1,30.14,SW,234,3.0,7.0,68,0.00,,,0.00,0.0,meteohub,2013-07-27 04:40:00,
2013-07-26 21:45:00,63.5,53.1,30.14,WSW,247,4.0,8.0,69,0.00,,,0.00,0.0,meteohub,2013-07-27 04:45:00,
2013-07-26 21:50:00,63.1,53.2,30.14,WSW,239,4.0,8.0,70,0.00,,,0.00,0.0,meteohub,2013-07-27 04:50:00,
2013-07-26 21:55:00,62.4,52.9,30.14,West,259,3.0,9.0,71,0.00,,,0.00,0.0,meteohub,2013-07-27 04:55:00,
2013-07-26 22:00:00,61.7,52.9,30.15,WSW,249,2.0,9.0,73,0.00,,,0.00,0.0,meteohub,2013-07-27 05:00:00,
2013-07-26 22:05:00,61.0,52.7,30.15,SW,221,4.0,9.0,74,0.00,,,0.00,0.0,meteohub,2013-07-27 05:05:00,
2013-07-26 22:11:00,60.3,52.7,30.15,SW,236,4.0,8.0,76,0.00,,,0.00,0.0,meteohub,2013-07-27 05:11:00,
2013-07-26 22:16:00,59.5,52.3,30.15,WSW,257,4.0,7.0,77,0.00,,,0.00,0.0,meteohub,2013-07-27 05:16:00,
2013-07-26 22:21:00,59.4,52.5,30.15,WSW,244,5.0,7.0,78,0.00,,,0.00,0.0,meteohub,2013-07-27 05:21:00,
2013-07-26 22:26:00,59.4,52.9,30.15,WNW,282,5.0,8.0,79,0.00,,,0.00,0.0,meteohub,2013-07-27 05:26:00,
2013-07-26 22:31:00,59.2,53.1,30.15,WSW,248,3.0,8.0,80,0.00,,,0.00,0.0,meteohub,2013-07-27 05:31:00,
2013-07-26 22:36:00,58.8,52.7,30.15,WSW,238,3.0,8.0,80,0.00,,,0.00,0.0,meteohub,2013-07-27 05:36:00,
2013-07-26 22:42:00,58.6,52.9,30.15,SW,223,2.0,10.0,81,0.00,,,0.00,0.0,meteohub,2013-07-27 05:42:00,
2013-07-26 22:47:00,58.6,52.9,30.15,SW,235,0.0,10.0,81,0.00,,,0.00,0.0,meteohub,2013-07-27 05:47:00,
2013-07-26 22:52:00,58.5,52.7,30.15,SW,233,0.0,10.0,81,0.00,,,0.00,0.0,meteohub,2013-07-27 05:52:00,
2013-07-26 22:57:00,58.5,52.7,30.15,WSW,250,2.0,5.0,81,0.00,,,0.00,0.0,meteohub,2013-07-27 05:57:00,
2013-07-26 23:02:00,58.5,52.7,30.15,SW,229,2.0,4.0,81,0.00,,,0.00,0.0,meteohub,2013-07-27 06:02:00,
2013-07-26 23:07:00,58.5,53.1,30.15,WSW,243,4.0,6.0,82,0.00,,,0.00,0.0,meteohub,2013-07-27 06:07:00,
2013-07-26 23:12:00,58.5,53.1,30.14,WSW,245,4.0,8.0,82,0.00,,,0.00,0.0,meteohub,2013-07-27 06:12:00,
2013-07-26 23:17:00,58.5,53.1,30.14,West,261,3.0,8.0,82,0.00,,,0.00,0.0,meteohub,2013-07-27 06:17:00,
2013-07-26 23:22:00,58.5,53.1,30.14,WSW,240,5.0,8.0,82,0.00,,,0.00,0.0,meteohub,2013-07-27 06:22:00,
2013-07-26 23:27:00,58.5,53.1,30.14,SW,236,5.0,7.0,82,0.00,,,0.00,0.0,meteohub,2013-07-27 06:27:00,
2013-07-26 23:32:00,58.3,53.1,30.14,WSW,245,4.0,7.0,83,0.00,,,0.00,0.0,meteohub,2013-07-27 06:32:00,
2013-07-26 23:37:00,58.1,52.9,30.14,West,263,2.0,7.0,83,0.00,,,0.00,0.0,meteohub,2013-07-27 06:37:00,
2013-07-26 23:42:00,57.9,52.7,30.14,SW,232,3.0,9.0,83,0.00,,,0.00,0.0,meteohub,2013-07-27 06:42:00,
2013-07-26 23:47:00,57.9,53.1,30.14,WSW,254,1.0,9.0,84,0.00,,,0.00,0.0,meteohub,2013-07-27 06:47:00,
2013-07-26 23:52:00,57.9,53.1,30.14,WSW,246,3.0,6.0,84,0.00,,,0.00,0.0,meteohub,2013-07-27 06:52:00,
2013-07-26 23:57:00,57.7,52.9,30.14,WSW,242,1.0,6.0,84,0.00,,,0.00,0.0,meteohub,2013-07-27 06:57:00,